Flag for Canada Weather past 2 weeks in Ottawa, Ontario, Canada

Now
72 °F

Scattered clouds.


Feels Like: 74 °F
Forecast: 60 / 81 °F
Wind: 5 mph from South

Location: Ottawa Int'L. Ont.

Current Time: Aug 1, 2014 at 9:24:03 PM

Latest Report: Aug 1, 2014 at 8:00 PM


Visibility: 15 mi

Pressure: 30.10 "Hg

Humidity: 73%

Dew point: 63 °F

Location of OttawaLocation

Historic Weather in Ottawa — Graph

°F

Ottawa temperature yesterday

Maximum temperature yesterday: 72 °F (at 3:00 PM)
Minimum temperature yesterday: 54 °F (at 12:00 AM)
Average temperature yesterday: 62 °F

Past Weeks' High & Low Weather Summary

 TemperatureHumidityPressure
High84 °F (Jul 22, 12:00 PM)100% (Jul 18, 4:00 AM)30.26 "Hg (Jul 18, 4:00 AM)
Low50 °F (Jul 29, 6:00 AM)41% (Jul 24, 3:00 PM)29.61 "Hg (Jul 27, 5:00 PM)
Average67 °F75%29.96 "Hg
* Reported Jul 17 8:00 PM — Aug 1 8:00 PM, Ottawa, Weather by CustomWeather, © 2014

Note: Actual official high and low records may vary slightly from our data, if they occured in-between our weather recording intervals... More about our weather records

Advertising

Ottawa weather history for previous 24 hours

 ConditionsComfort  
Time TempWeatherWind HumidityBarometerVisibility
8:00 PM
Aug 1
72 °FScattered clouds.5 mph73%30.10 "Hg15 mi
7:00 PM75 °FScattered clouds.8 mph65%30.09 "Hg10 mi
6:00 PM79 °FScattered clouds.12 mph58%30.08 "Hg15 mi
5:00 PM81 °FPartly sunny.12 mph48%30.09 "Hg15 mi
4:00 PM79 °FPartly sunny.12 mph51%30.08 "Hg15 mi
3:00 PM81 °FScattered clouds.8 mph54%30.10 "Hg15 mi
2:00 PM77 °FScattered clouds.12 mph57%30.10 "Hg15 mi
1:00 PM79 °FScattered clouds.10 mph54%30.10 "Hg15 mi
12:00 PM75 °FScattered clouds.9 mph65%30.11 "Hg15 mi
11:00 AM73 °FPassing clouds.6 mph69%30.11 "Hg15 mi
10:00 AM68 °FPassing clouds.7 mph78%30.12 "Hg15 mi
9:00 AM64 °FScattered clouds.7 mph83%30.12 "Hg15 mi
8:00 AM63 °FPartly sunny.6 mph88%30.11 "Hg15 mi
7:00 AM61 °FPartly sunny.2 mph88%30.09 "Hg15 mi
6:00 AM59 °FPartly cloudy.6 mph94%30.08 "Hg15 mi
5:00 AM57 °FPassing clouds.5 mph100%30.06 "Hg15 mi
4:00 AM57 °FClear.3 mph100%30.06 "Hg15 mi
3:00 AM59 °FPassing clouds.7 mph94%30.06 "Hg15 mi
2:00 AM59 °FPassing clouds.3 mph94%30.06 "Hg15 mi
1:00 AM59 °FPassing clouds.5 mph94%30.06 "Hg15 mi
12:00 AM61 °FClear.6 mph88%30.05 "Hg15 mi
11:00 PM
Jul 31
63 °FClear.8 mph83%30.04 "Hg15 mi
10:00 PM63 °FClear.6 mph83%30.03 "Hg15 mi
9:00 PM64 °FPartly sunny.8 mph78%30.03 "Hg15 mi
Weather by CustomWeather, © 2014

See weather overviewHow to use our weather pages